Погода Мыс Биллингс

Погода Мыс Биллингс : погода сейчас, прогноз погоды и архив. Всё, что Вы хотите узнать о погоде Мыс Биллингс!

Поиск расширенной информации на нашем сайте:

Другие новости

Новости СМИ2

Главная страница сайта

Новости сайта

03.07.2017

Напоминаем, что на нашем специализированном сайте Метеоцентр.Азия вы можете получить высокодетализированные автоматические прогнозы погоды по пунктам России, СНГ и мира в авиационном формате (включающие направление и скорость ветра, видимость, явления погоды, количество и форму облачности, нижнюю и верхнюю границу облачности).


Погода Мыс Биллингс - сегодня

Время (UTC), дата Ветер
(°,м/с) 
Видим.   Явления Облачность Т
(°С)
Тd
(°С)
f(%) Тe
(°С)
Pmin
(гПа)
dP
(гПа)
Po
(мм)
O2
(г/м3)
Тmin Tmax R s Состояние
почвы
18 15.05.18 120 (ЮВ) 3{05}  20000 м    3/3 600 м 
[Sc]
-11.2 -12.5 90 -14  1017.1  -0.2  763  322  -11.2      52  неравномерный
сухой снег
100% 
00 16.05.18 100 (В) 4{06}  20000 м    6/0 средняя, верхняя 
[Ac trans|Ci fib]
-7.3 -9 88 -11  1016.1  -1  762  316           
12 16.05.18 130 (ЮВ) 3{05}  20000 м    3/3 600 м 
[Sc]
-8.2 -9.2 92 -11  1017.1  1.4  763  318           
06 17.05.18 100 (В) 9-11{11}  4000 м  позёмок  6/4 600 м средняя 
[Sc|Ac trans]
-3.8 -4.6 94 -9  1019.1  -0.6  764  313    -3.8       
18 17.05.18 100 (В) 11{13}  1000 м  метель  3/0 верхняя 
[Ci fib]
-7.2 -7.7 96 -14  1017.4  -1.2  763  317  -7.2      52  неравномерный
сухой снег
100% 
06 18.05.18 100 (В) 9-11{11}  20000 м  позёмок  8/8 600 м 
[Sc]
-2.7 -4.3 89 -8  1018.1  0.2  763  311    -2.7       
18 18.05.18 080 (В) 3{05}  10 км    10/10 600 м 
[Sc]
-4.2 -5.4 91 -6  1019.7  0.4  764  313  -4.2      52  неравномерный
мокрый или
старый снег
100% 
00 19.05.18 100 (В) 6{08}  10 км    9/0 
[Sc]
-3.5 -4.9 90 -8  1019.9  0.2  765  313           
06 19.05.18 100 (В) 8-10{10}  20000 м  позёмок  9/9 600 м 
[Sc]
-2.4 -3.6 91 -7  1019.6  -0.3  764  311    -2.4       
18 19.05.18 090 (В) 8-10{10}  20000 м  позёмок  10/10 600 м 
[Sc]
-3.4 -5.5 85 -8  1019.2  -0.4  764  312  -3.4      51  неравномерный
мокрый или
старый снег
100% 
06 20.05.18 100 (В) 10-12{12}  20000 м  позёмок  9/9 600 м 
[Sc]
-2 -3.8 87 -7  1018.2  -1  763  310    -2       
18 21.05.18 100 (В) 13-16{16}  1000 м  метель  4/0 средняя 
[Ac trans]
-6.2 -7.7 89 -13  1014.2  0.8  760  314  -6.2      50  неравномерный
сухой снег
100% 
06 22.05.18 080 (В) 8-10{10}  10 км  позёмок  8/0 средняя, верхняя 
[Ac trans|Ci fib]
-5 -6.7 88 -10  1014.9  0.1  761  313    -4.8       
18 22.05.18 110 (В) 4{06}  4000 м  дымка  10/10 600 м 
[Sc]
-6.4 -7.2 94 -10  1014.6  -0.8  761  315  -6.4      51  неравномерный
сухой снег
100% 
00 23.05.18 060 (СВ) 4{06}  10 км    10/10 600 м 
[Sc]
-5.8 -7.3 89 -9  1014.1  -0.5  760  314           
12 23.05.18 070 (В) 3{05}  20000 м    8/8 600 м 
[Sc]
-4.3 -6.2 87 -7  1011.7  -0.9  758  311           
18 23.05.18 260 (З) 1{03}  4000 м  дымка  3/3 600 м 
[Sc]
-7.1 -7.6 96 -7  1010.7  -1  758  314  -7.1      51  неравномерный
сухой снег
100% 
00 24.05.18 290 (З) 1{03}  10 км    10/10 600 м 
[Sc]
-1.5 -3.2 88 -1  1010.7  758  307           
12 24.05.18 290 (З) 3{05}  20000 м    10/10 600 м 
[Sc]
-2.3 -3.8 89 -4  1012.1  1.2  759  309           
18 24.05.18 290 (З) 2{04}  20000 м    10/10 600 м 
[Sc]
-3.6 -5 90 -5  1012.9  0.8  759  311  -3.6      51  неравномерный
мокрый или
старый снег
100% 
12 25.05.18 280 (З) 2{04}  20000 м    10/10 600 м 
[Sc]
-2 -3.8 87 -3  1017.4  1.1  763  310           
18 25.05.18 230 (ЮЗ) 1{03}  20000 м    10/10 600 м 
[Sc]
-3.3 -5 88 -3  1018  0.6  763  312  -3.3      50  неравномерный
мокрый или
старый снег
100% 
00 26.05.18 110 (В) 2{04}  20000 м    9/9 600 м 
[Sc]
-1.5 -4.2 82 -2  1017.6  -0.4  763  310           
18 26.05.18 090 (В) 3{05}  20000 м    6/0 средняя, верхняя 
[Ac As|Ci fib]
-6.3 -8.2 86 -9  1015.7  -0.6  761  315  -6.3    0.2  50  неравномерный
мокрый или
старый снег
100% 
00 27.05.18 100 (В) 7{09}  20000 м    8/0 верхняя 
[Ci sp]
-1.4 -3.7 84 -6  1015.3  -0.4  761  309           
Время (UTC), дата Ветер
(°,м/с) 
Видим.   Явления Облачность Т
(°С)
Тd
(°С)
f(%) Тe
(°С)
Pmin
(гПа)
dP
(гПа)
Po
(мм)
O2
(г/м3)
Тmin Tmax R s Состояние
почвы

Для получения пояснительной информации подведите курсор к названию столбца.

ПОГОДА Мыс Биллингс - архив

Всё, что Вы хотите узнать о погоде Мыс Биллингс - удобно и подробно!

Выберите нужную дату (начиная с 1 января 2015* года) и нажмите кнопку "Найти".
Будут отображены архивные сводки погоды по пункту Мыс Биллингс, начиная с указанной даты.


Отображать данные в формате CSV (для использования в таблицах Excel)


Внимание! Наш архив погоды предназначен исключительно для личного некоммерческого использования в познавательных целях. Если Вам необходимы официальные справки о состоянии погоды (для производственных, юридических, коммерческих и т.п. целей), обращайтесь в органы Росгидромета.

*Примечание: данная дата относится к архиву по метеостанциям СССР (Россия, СНГ, Балтия).
Архив по метеостанциям Зарубежной Европы и Азии (кроме Китая) хранится 10 дней, по другим регионам земного шара (Китай, Африка, Америка, Австралия, Океания) - 1 день.

Мыс Биллингс - район местоположения метеостанции


Название, широта, долгота, высота метеостанции:
Мыс Биллингс 69.88°ш. 175.76°д. 3 м над ур. моря [Российская Федерация]

Дополнительная информация

В oтличие oт бoльшинства пoгoдных сайтoв мы публикуем пoдрoбную метеoинфoрмацию в детальнoм прoфессиoнальнoм фoрмате.

Характеристики температуры и влажнoсти вoздуха измеряются на высoте 2 м в тени вдали oт зданий и деревьев.
Скoрoсть ветра измеряется на высoте 10 м (на урoвне рoста челoвека скoрoсть ветра ниже в 1.5-2 раза). Если метеoстанция нахoдится в гoрoде или в лесу, тo скoрoсть ветра занижена на 2-4 м/с пo сравнению с oткрытым местoм. Скoрoсть ветра над акватoриями крупных рек и oзёр, а также на вершинах хoлмoв на 2-5 м/с выше, чем в oбычных услoвиях.
Атмoсфернoе давление в разных тoчках местнoсти мoжет значительнo oтличаться oт давления на метеoстанции, в зависимoсти oт услoвий рельефа (при пoдъёме на 10 м давление пoнижается примернo на 1 мм рт.ст.).